Location: Jackson
(42.2460°N, 84.4010°W)
Time: 03:03:58
(UTC-05:00)

Injun/Solrad 3 - All Passes

Search period start: 15 February 2026 00:00
Search period end: 25 February 2026 00:00
Orbit: 873 x 983 km, 66.8° (Epoch: 13 February)

Date Brightness Start Highest point End Pass type
(mag) Time Alt. Az. Time Alt. Az. Time Alt. Az.
15 Feb - 10:43:01 10° SE 10:45:38 13° ESE 10:48:15 10° ENE daylight
15 Feb - 12:25:21 10° SSW 12:31:11 89° NW 12:37:08 10° NNE daylight
15 Feb - 14:14:25 10° W 14:18:30 19° NW 14:22:40 10° N daylight
15 Feb - 19:42:12 10° N 19:47:01 23° NE 19:51:54 10° E visible
15 Feb - 21:27:58 10° NNW 21:34:08 77° WSW 21:40:27 10° SSE visible
15 Feb - 23:17:34 10° W 23:19:39 12° W 23:21:44 10° WSW visible
16 Feb - 10:52:02 10° SSE 10:56:19 22° ESE 11:00:39 10° ENE daylight
16 Feb - 12:36:29 10° SW 12:42:14 61° NW 12:48:07 10° NNE daylight
16 Feb - 14:26:59 10° WNW 14:30:02 14° NNW 14:33:07 10° N daylight
16 Feb - 19:52:55 10° NNW 19:58:22 32° NE 20:03:55 10° ESE visible
16 Feb - 21:39:08 10° NW 21:45:06 51° WSW 21:51:11 10° S visible
17 Feb - 11:01:56 10° S 11:07:05 34° ESE 11:12:18 10° NE daylight
17 Feb - 12:47:56 10° WSW 12:53:25 41° NW 12:59:01 10° NNE daylight
17 Feb - 14:40:25 10° NW 14:41:40 11° NNW 14:42:55 10° NNW daylight
17 Feb - 18:19:20 10° N 18:21:29 12° NNE 18:23:39 10° NE daylight
17 Feb - 20:03:44 10° NNW 20:09:38 45° NE 20:15:38 10° SE visible
17 Feb - 21:50:29 10° NW 21:55:58 34° WSW 22:01:33 10° S visible
18 Feb - 11:12:19 10° S 11:17:56 52° ESE 11:23:39 10° NE daylight
18 Feb - 12:59:39 10° WSW 13:04:41 29° NW 13:09:50 10° NNE daylight
18 Feb - 18:29:30 10° N 18:33:06 16° NE 18:36:44 10° ENE daylight
18 Feb - 20:14:38 10° NNW 20:20:47 65° ENE 20:27:04 10° SE visible
18 Feb - 22:02:07 10° WNW 22:06:46 22° WSW 22:11:28 10° SSW visible
19 Feb - 09:41:57 10° ESE 09:43:27 11° E 09:44:58 10° E daylight
19 Feb - 11:23:03 10° SSW 11:28:52 80° ESE 11:34:50 10° NNE daylight
19 Feb - 13:11:42 10° W 13:16:03 21° NW 13:20:31 10° N daylight
19 Feb - 18:40:01 10° N 18:44:35 21° NE 18:49:14 10° E visible
19 Feb - 20:25:39 10° NNW 20:31:51 87° WSW 20:38:12 10° SSE visible
19 Feb - 22:14:25 10° WNW 22:17:29 14° WSW 22:20:33 10° SW visible
20 Feb - 09:50:14 10° SSE 09:54:06 19° ESE 09:58:01 10° ENE daylight
20 Feb - 11:34:07 10° SW 11:39:55 69° WNW 11:45:51 10° NNE daylight
20 Feb - 13:24:06 10° WNW 13:27:33 16° NW 13:31:03 10° N daylight
20 Feb - 18:50:42 10° NNW 18:56:00 29° NE 19:01:22 10° ESE visible
20 Feb - 20:36:46 10° NW 20:42:50 59° WSW 20:49:03 10° SSE visible
21 Feb - 09:59:56 10° SSE 10:04:51 29° ESE 10:09:51 10° NE daylight
21 Feb - 11:45:27 10° SW 11:51:03 47° NW 11:56:47 10° NNE daylight
21 Feb - 13:37:06 10° NW 13:39:09 12° NNW 13:41:13 10° N daylight
21 Feb - 17:17:33 10° NNE 17:18:59 11° NNE 17:20:25 10° NE daylight
21 Feb - 19:01:30 10° NNW 19:07:16 40° NE 19:13:10 10° ESE visible
21 Feb - 20:48:02 10° NW 20:53:44 39° WSW 20:59:32 10° S visible
22 Feb - 10:10:10 10° S 10:15:40 45° ESE 10:21:17 10° NE daylight
22 Feb - 11:57:04 10° WSW 12:02:17 32° NW 12:07:37 10° NNE daylight
22 Feb - 17:27:24 10° N 17:30:37 14° NNE 17:33:52 10° ENE daylight
22 Feb - 19:12:22 10° NNW 19:18:28 58° NE 19:24:41 10° SE visible
22 Feb - 20:59:34 10° NW 21:04:34 26° WSW 21:09:37 10° SSW visible
23 Feb - 10:20:48 10° SSW 10:26:35 70° ESE 10:32:30 10° NE daylight
23 Feb - 12:09:00 10° W 12:13:38 23° NW 12:18:21 10° N daylight
23 Feb - 17:37:51 10° N 17:42:09 19° NE 17:46:31 10° E daylight
23 Feb - 19:23:20 10° NNW 19:29:34 83° ENE 19:35:55 10° SSE visible
23 Feb - 21:11:34 10° WNW 21:15:18 17° WSW 21:19:03 10° SW visible
24 Feb - 08:48:33 10° SE 08:51:55 16° ESE 08:55:18 10° ENE daylight
24 Feb - 10:31:45 10° SW 10:37:35 79° WNW 10:43:34 10° NNE daylight
24 Feb - 12:21:17 10° WNW 12:25:05 17° NW 12:28:57 10° N daylight
24 Feb - 17:48:29 10° NNW 17:53:35 26° NE 17:58:46 10° E daylight
24 Feb - 19:34:24 10° NW 19:40:34 67° WSW 19:46:51 10° SSE visible
